FW2164 Weather Reports


Display with metric or nautical units.
time (UTC)temp
F
wind
direction
speed
MPH
gust
MPH
rain 1hr
in
rain 24hr
in
rain mn
in
humidity
%
barometer
mb
20220925050840 55 354 0.0 0.0 0.00 0.01 0.00 92 1006.8
20220925050337 55 316 1.0 0.0 0.00 0.01 0.00 92 1006.8
20220925045839 55 309 0.0 0.0 0.00 0.01 0.01 92 1006.8
20220925045336 55 235 3.0 0.0 0.00 0.01 0.01 92 1006.8
20220925044838 55 40 0.0 0.0 0.00 0.01 0.01 91 1006.8
20220925044336 55 346 1.0 0.0 0.00 0.01 0.01 91 1006.8
20220925043836 56 35 0.0 0.0 0.00 0.01 0.01 91 1006.8
20220925043336 56 286 0.0 0.0 0.00 0.01 0.01 91 1006.8
20220925042841 56 33 0.0 0.0 0.00 0.01 0.01 91 1006.8
20220925042336 56 323 0.0 0.0 0.00 0.01 0.01 91 1006.8
20220925041839 56 55 0.0 0.0 0.00 0.01 0.01 91 1006.8
20220925041335 56 284 3.0 0.0 0.00 0.01 0.01 91 1006.8
20220925040835 56 196 2.0 0.0 0.00 0.01 0.01 90 1006.8
20220925040338 56 253 3.0 0.0 0.00 0.01 0.01 90 1006.8
20220925035840 56 306 3.0 0.0 0.00 0.01 0.01 90 1006.8
20220925035340 56 238 0.0 0.0 0.00 0.01 0.01 90 1006.8
20220925034843 57 359 2.0 0.0 0.00 0.01 0.01 90 1006.8
20220925034339 57 282 2.0 0.0 0.00 0.01 0.01 90 1006.8
20220925033843 57 304 1.0 0.0 0.00 0.01 0.01 89 1006.8
20220925033340 57 22 3.0 0.0 0.00 0.01 0.01 89 1006.8
20220925032841 57 257 1.0 0.0 0.00 0.01 0.01 89 1006.8
20220925032336 57 215 4.0 0.0 0.00 0.01 0.01 89 1007.1
20220925031841 57 258 5.0 0.0 0.00 0.01 0.01 89 1006.8
20220925031343 57 315 3.0 0.0 0.00 0.01 0.01 89 1006.8
20220925030839 57 341 3.0 0.0 0.00 0.01 0.01 89 1006.8
20220925030339 57 239 3.0 0.0 0.00 0.01 0.01 89 1006.8
20220925025838 57 230 5.0 0.0 0.00 0.01 0.01 89 1006.8
20220925025340 57 119 2.0 0.0 0.00 0.01 0.01 88 1006.8
20220925024840 57 10 1.0 0.0 0.00 0.01 0.01 88 1006.8
20220925024340 57 325 3.0 0.0 0.00 0.01 0.01 88 1006.8
20220925023841 57 318 1.0 0.0 0.00 0.01 0.01 88 1006.8
20220925023338 57 199 4.0 0.0 0.00 0.01 0.01 88 1006.8
20220925022837 57 152 6.0 0.0 0.00 0.01 0.01 87 1006.8
20220925022337 57 251 4.0 0.0 0.00 0.01 0.01 87 1006.8
20220925021842 57 303 3.0 0.0 0.00 0.01 0.01 87 1006.4
20220925021339 58 260 3.0 0.0 0.00 0.01 0.01 87 1006.8
20220925020840 58 343 4.0 0.0 0.00 0.01 0.01 87 1006.4
20220925020341 58 278 6.0 0.0 0.00 0.01 0.01 87 1006.4
20220925015836 57 239 8.0 0.0 0.00 0.01 0.01 87 1006.4
20220925015339 58 80 4.0 0.0 0.00 0.01 0.01 87 1006.4
20220925014840 58 203 6.0 0.0 0.00 0.01 0.01 86 1006.4
20220925014342 58 329 5.0 0.0 0.00 0.01 0.01 86 1006.4
20220925013841 58 86 4.0 0.0 0.00 0.01 0.01 86 1006.4
20220925013341 58 162 5.0 0.0 0.00 0.01 0.01 86 1006.1
20220925012837 58 275 5.0 0.0 0.00 0.01 0.01 86 1006.4
20220925012337 58 358 3.0 0.0 0.00 0.01 0.01 86 1006.4
20220925011839 58 49 4.0 0.0 0.00 0.01 0.01 85 1006.1
20220925011341 58 233 4.0 0.0 0.00 0.01 0.01 85 1006.1
20220925010837 58 12 4.0 0.0 0.00 0.01 0.01 85 1006.1
20220925010341 58 303 9.0 0.0 0.00 0.01 0.01 85 1006.1
20220925005839 58 209 5.0 0.0 0.00 0.01 0.01 85 1006.1
20220925005337 58 234 7.0 0.0 0.00 0.01 0.01 85 1006.1
20220925004836 58 261 7.0 0.0 0.00 0.01 0.01 85 1006.1
20220925004342 58 326 6.0 0.0 0.00 0.01 0.01 84 1006.1
20220925003836 59 298 6.0 0.0 0.00 0.01 0.01 84 1006.1
20220925003344 59 280 6.0 0.0 0.00 0.01 0.01 85 1006.1
20220925002841 59 40 7.0 0.0 0.00 0.01 0.01 85 1005.8
20220925002337 59 259 7.0 0.0 0.00 0.01 0.01 84 1005.8
20220925001836 59 238 5.0 0.0 0.00 0.01 0.01 85 1005.8
20220925001338 59 268 5.0 0.0 0.00 0.01 0.01 84 1006.1
20220925000839 59 159 5.0 0.0 0.00 0.01 0.01 84 1005.8
20220925000341 59 316 4.0 0.0 0.00 0.02 0.01 84 1005.8
20220924235840 59 185 6.0 0.0 0.00 0.02 0.01 84 1005.8
20220924235341 59 258 8.0 0.0 0.00 0.02 0.01 84 1005.8
20220924234837 59 328 8.0 0.0 0.00 0.04 0.01 83 1005.8
20220924234336 59 278 9.0 0.0 0.00 0.05 0.01 83 1005.8
20220924233842 59 240 9.0 0.0 0.00 0.05 0.01 83 1005.8
20220924233338 59 259 9.0 0.0 0.00 0.05 0.01 83 1005.4
20220924232840 59 77 6.0 0.0 0.00 0.05 0.01 84 1005.4
20220924232341 59 182 7.0 0.0 0.00 0.05 0.01 84 1005.4
20220924231839 59 233 9.0 0.0 0.00 0.05 0.01 83 1005.4
20220924231343 59 291 9.0 0.0 0.00 0.05 0.01 83 1005.4
20220924230837 59 315 9.0 0.0 0.00 0.05 0.01 83 1005.4
20220924230343 59 284 9.0 0.0 0.00 0.05 0.01 83 1005.4
20220924225835 59 322 11.0 0.0 0.00 0.05 0.01 83 1005.4
20220924225338 59 269 14.0 0.0 0.00 0.05 0.01 83 1005.4
20220924224836 59 208 9.0 0.0 0.00 0.05 0.01 84 1005.4
20220924224339 59 88 6.0 0.0 0.00 0.05 0.01 83 1005.4
20220924223836 59 232 13.0 0.0 0.00 0.05 0.01 83 1005.4
20220924223336 60 323 11.0 0.0 0.00 0.05 0.01 83 1005.4
20220924222836 60 22 15.0 0.0 0.00 0.05 0.01 82 1005.4
20220924222341 60 262 11.0 0.0 0.00 0.05 0.01 83 1005.4
20220924221835 60 279 12.0 0.0 0.00 0.05 0.01 82 1005.1
20220924221341 60 189 14.0 0.0 0.00 0.05 0.01 84 1005.1
20220924220838 60 320 10.0 0.0 0.00 0.05 0.01 84 1005.1
20220924220339 60 256 10.0 0.0 0.00 0.05 0.01 84 1005.1
20220924215836 60 190 9.0 0.0 0.00 0.05 0.01 84 1005.1
20220924215340 60 308 11.0 0.0 0.00 0.05 0.01 84 1005.1
20220924214842 60 247 14.0 0.0 0.00 0.05 0.01 84 1005.1
20220924214339 60 289 17.0 0.0 0.00 0.05 0.01 84 1005.1
20220924213839 60 260 13.0 0.0 0.00 0.05 0.01 84 1005.1
20220924213342 60 201 11.0 0.0 0.00 0.05 0.01 84 1004.7
20220924212850 59 284 11.0 0.0 0.00 0.05 0.01 84 1005.1
20220924212354 59 286 9.0 0.0 0.00 0.05 0.01 84 1004.7
20220924211851 59 187 9.0 0.0 0.00 0.05 0.01 86 1005.1
20220924211352 59 225 12.0 0.0 0.00 0.05 0.01 87 1005.1
20220924210844 59 245 13.0 0.0 0.00 0.05 0.01 87 1005.1
20220924210342 59 154 8.0 0.0 0.00 0.05 0.01 87 1004.7
20220924205853 59 258 17.0 0.0 0.00 0.05 0.01 86 1004.7
20220924205342 60 217 8.0 0.0 0.00 0.05 0.01 86 1004.7
20220924204844 60 253 14.0 0.0 0.00 0.05 0.01 85 1004.7
20220924204342 61 232 9.0 0.0 0.00 0.05 0.01 83 1004.7
20220924203845 61 282 18.0 0.0 0.00 0.05 0.01 81 1004.7
20220924203343 61 289 14.0 0.0 0.00 0.05 0.01 80 1004.7
20220924202840 61 301 14.0 0.0 0.00 0.05 0.01 79 1004.7
20220924202338 62 153 11.0 0.0 0.00 0.05 0.01 78 1004.7
20220924201840 62 357 11.0 0.0 0.00 0.05 0.01 76 1004.4
20220924201339 62 90 14.0 0.0 0.00 0.05 0.01 75 1004.4
20220924200837 63 213 13.0 0.0 0.00 0.05 0.01 75 1004.4
20220924200337 63 339 20.0 0.0 0.00 0.05 0.01 73 1004.4
20220924195846 64 291 17.0 0.0 0.00 0.05 0.01 74 1004.4
20220924195347 64 135 11.0 0.0 0.00 0.05 0.01 74 1004.1
20220924194839 65 314 11.0 0.0 0.00 0.05 0.01 72 1004.1
20220924194335 65 207 14.0 0.0 0.00 0.05 0.01 72 1004.1
20220924193837 66 255 14.0 0.0 0.00 0.05 0.01 72 1004.1
20220924193338 66 301 18.0 0.0 0.00 0.05 0.01 72 1004.1
20220924192838 67 238 17.0 0.0 0.00 0.05 0.01 69 1003.7
20220924192338 68 279 13.0 0.0 0.00 0.05 0.01 66 1003.7
20220924191842 68 293 10.0 0.0 0.00 0.05 0.01 65 1003.7
20220924191337 68 270 8.0 0.0 0.00 0.05 0.01 65 1003.7
20220924190842 68 256 9.0 0.0 0.00 0.05 0.01 65 1003.7
20220924190343 69 288 9.0 0.0 0.00 0.05 0.01 65 1003.7
20220924185836 69 0 6.0 0.0 0.00 0.05 0.01 67 1003.7
20220924185342 69 315 6.0 0.0 0.00 0.05 0.01 68 1003.7
20220924184838 70 263 6.0 0.0 0.00 0.05 0.01 68 1004.1
20220924184343 70 146 9.0 0.0 0.00 0.05 0.01 67 1004.1
20220924183841 70 348 7.0 0.0 0.00 0.05 0.01 64 1004.1
20220924183342 70 124 6.0 0.0 0.00 0.05 0.01 68 1004.1
20220924182839 70 115 6.0 0.0 0.00 0.05 0.01 68 1004.1
20220924182338 69 127 5.0 0.0 0.00 0.05 0.01 69 1004.1
20220924181836 69 114 4.0 0.0 0.00 0.05 0.01 74 1004.4
20220924181338 67 295 6.0 0.0 0.00 0.05 0.01 72 1004.4
20220924180844 67 187 6.0 0.0 0.00 0.05 0.01 74 1004.4
20220924180339 67 251 3.0 0.0 0.00 0.05 0.01 73 1004.4
20220924175842 67 194 4.0 0.0 0.00 0.05 0.01 73 1004.4
20220924175336 67 120 4.0 0.0 0.00 0.05 0.01 73 1004.4
20220924174838 67 331 3.0 0.0 0.00 0.05 0.01 75 1004.4
20220924174337 68 322 3.0 0.0 0.00 0.05 0.01 78 1004.4
20220924173839 69 196 6.0 0.0 0.00 0.05 0.01 68 1004.4
20220924173339 72 272 6.0 0.0 0.00 0.05 0.01 73 1004.4
20220924172835 68 131 7.0 0.0 0.00 0.05 0.01 72 1004.4
20220924172340 70 184 6.0 0.0 0.00 0.05 0.01 72 1004.4
20220924171843 67 163 8.0 0.0 0.00 0.05 0.01 72 1004.4
20220924171343 70 152 5.0 0.0 0.00 0.05 0.01 72 1004.7
20220924170837 68 155 5.0 0.0 0.00 0.05 0.01 75 1004.7
20220924170339 67 126 5.0 0.0 0.00 0.05 0.01 75 1004.7
20220924165838 66 159 6.0 0.0 0.00 0.05 0.01 76 1004.7
20220924165341 66 130 6.0 0.0 0.00 0.05 0.01 75 1004.7
20220924164841 66 153 6.0 0.0 0.00 0.05 0.01 76 1004.7
20220924164341 65 144 6.0 0.0 0.00 0.05 0.01 78 1004.7
20220924163838 66 204 6.0 0.0 0.00 0.05 0.01 78 1005.1
20220924163342 64 148 5.0 0.0 0.00 0.05 0.01 79 1005.1
20220924162840 64 106 4.0 0.0 0.00 0.05 0.01 80 1005.1
20220924162340 63 165 5.0 0.0 0.00 0.05 0.01 82 1005.1
20220924161839 64 125 4.0 0.0 0.00 0.05 0.01 82 1005.1
20220924161339 63 169 5.0 0.0 0.00 0.05 0.01 82 1005.1
20220924160840 64 171 4.0 0.0 0.00 0.05 0.01 82 1005.1
20220924160338 63 143 6.0 0.0 0.00 0.05 0.01 82 1005.1
20220924155837 63 148 4.0 0.0 0.00 0.05 0.01 83 1005.1
20220924155338 62 130 6.0 0.0 0.00 0.05 0.01 84 1005.1
20220924154843 63 176 6.0 0.0 0.00 0.05 0.01 87 1005.4
20220924154339 63 112 5.0 0.0 0.00 0.06 0.01 85 1005.4
20220924153839 61 148 5.0 0.0 0.00 0.06 0.01 88 1005.4
20220924153336 61 67 4.0 0.0 0.00 0.06 0.01 86 1005.4
20220924152844 59 328 4.0 0.0 0.00 0.06 0.01 93 1005.4
20220924152338 58 152 4.0 0.0 0.00 0.06 0.01 92 1005.4
20220924151837 58 143 4.0 0.0 0.00 0.07 0.01 92 1005.4
20220924151344 59 179 3.0 0.0 0.00 0.07 0.01 92 1005.4
20220924150837 59 193 4.0 0.0 0.00 0.07 0.01 92 1005.4
20220924150337 58 160 4.0 0.0 0.00 0.07 0.01 91 1005.1
20220924145841 59 169 3.0 0.0 0.00 0.08 0.01 90 1005.4
20220924145338 60 182 4.0 0.0 0.00 0.08 0.01 91 1005.4
20220924144837 58 140 5.0 0.0 0.00 0.08 0.01 94 1005.4
20220924144336 57 222 5.0 0.0 0.00 0.08 0.01 95 1005.4
20220924143843 57 101 6.0 0.0 0.00 0.08 0.01 96 1005.4
20220924143338 57 109 2.0 0.0 0.00 0.08 0.01 97 1005.4
20220924142837 57 64 5.0 0.0 0.00 0.08 0.01 97 1005.4
20220924142337 57 274 5.0 0.0 0.00 0.09 0.01 97 1005.4
20220924141839 57 100 4.0 0.0 0.00 0.09 0.01 97 1005.4
20220924141345 56 226 5.0 0.0 0.00 0.10 0.01 97 1005.4
20220924140840 56 228 4.0 0.0 0.00 0.11 0.01 97 1005.4
20220924140341 56 187 5.0 0.0 0.00 0.11 0.01 98 1005.4
20220924135843 56 149 4.0 0.0 0.00 0.11 0.01 98 1005.4
20220924135343 56 133 4.0 0.0 0.00 0.12 0.01 98 1005.4
20220924134840 56 180 4.0 0.0 0.00 0.12 0.01 98 1005.4
20220924134339 56 147 3.0 0.0 0.00 0.12 0.01 98 1005.4
20220924133843 56 195 4.0 0.0 0.00 0.12 0.01 98 1005.4
20220924133342 56 138 4.0 0.0 0.00 0.12 0.01 98 1005.4
20220924132838 56 192 4.0 0.0 0.00 0.12 0.01 98 1005.4
20220924132339 56 137 3.0 0.0 0.00 0.12 0.01 98 1005.4
20220924131840 56 129 3.0 0.0 0.00 0.12 0.01 98 1005.4
20220924131340 56 155 2.0 0.0 0.00 0.12 0.01 98 1005.4
20220924130841 56 186 0.0 0.0 0.00 0.12 0.01 99 1005.4
20220924130341 55 132 0.0 0.0 0.00 0.12 0.01 98 1005.4
20220924125841 55 112 4.0 0.0 0.00 0.12 0.01 98 1005.4
20220924125340 55 141 5.0 0.0 0.00 0.12 0.01 98 1005.4
20220924124837 55 138 5.0 0.0 0.00 0.12 0.01 98 1005.4
20220924124336 55 144 5.0 0.0 0.00 0.12 0.01 98 1005.4
20220924123839 55 139 3.0 0.0 0.00 0.12 0.01 98 1005.4
20220924123342 55 205 0.0 0.0 0.00 0.12 0.01 98 1005.4
20220924122839 55 172 3.0 0.0 0.00 0.12 0.01 98 1005.4
20220924122343 55 120 0.0 0.0 0.00 0.12 0.01 98 1005.4
20220924121843 55 123 2.0 0.0 0.00 0.12 0.01 98 1005.4
20220924121340 55 188 5.0 0.0 0.00 0.12 0.01 98 1005.4
20220924120842 55 144 6.0 0.0 0.00 0.12 0.01 98 1005.4
20220924120342 55 153 6.0 0.0 0.00 0.12 0.01 98 1005.4
20220924115842 55 143 5.0 0.0 0.00 0.12 0.01 98 1005.4
20220924115338 55 176 5.0 0.0 0.00 0.12 0.01 98 1005.4
20220924114841 55 184 4.0 0.0 0.00 0.12 0.01 98 1005.4
20220924114342 55 100 5.0 0.0 0.00 0.12 0.01 98 1005.4
20220924113836 55 152 6.0 0.0 0.00 0.12 0.01 98 1005.8
20220924113337 55 155 6.0 0.0 0.00 0.12 0.01 98 1005.8
20220924112839 55 187 3.0 0.0 0.00 0.12 0.01 98 1005.8
20220924112343 55 174 6.0 0.0 0.00 0.12 0.01 98 1005.8
20220924111838 55 177 4.0 0.0 0.00 0.12 0.01 98 1005.4
20220924111337 55 156 6.0 0.0 0.00 0.12 0.01 98 1005.4
20220924110839 55 182 6.0 0.0 0.00 0.12 0.01 98 1005.8
20220924110343 55 198 6.0 0.0 0.00 0.12 0.01 98 1005.4
20220924105852 55 140 5.0 0.0 0.00 0.12 0.01 98 1005.8
20220924105415 55 160 5.0 0.0 0.00 0.12 0.01 98 1005.8
20220924105124 55 136 5.0 0.0 0.00 0.12 0.01 98 1005.4
20220924104519 55 163 5.0 0.0 0.00 0.12 0.01 98 1005.8
20220924103857 55 190 4.0 0.0 0.00 0.12 0.01 98 1005.8
20220924103548 55 204 4.0 0.0 0.00 0.12 0.01 98 1005.4
20220924102839 55 213 7.0 0.0 0.00 0.12 0.01 98 1005.4
20220924102340 55 147 5.0 0.0 0.00 0.12 0.01 98 1005.4
20220924102049 55 127 3.0 0.0 0.00 0.12 0.01 98 1005.4
20220924101415 55 161 3.0 0.0 0.00 0.12 0.01 98 1005.4
20220924101026 55 143 5.0 0.0 0.00 0.12 0.01 98 1005.8
20220924100521 55 164 3.0 0.0 0.00 0.12 0.01 98 1005.8
20220924100221 54 144 5.0 0.0 0.00 0.12 0.01 98 1005.8
20220924095422 54 146 7.0 0.0 0.00 0.12 0.01 98 1005.4
20220924094926 55 159 6.0 0.0 0.00 0.12 0.01 98 1005.8
20220924094634 54 144 6.0 0.0 0.00 0.12 0.01 98 1005.8
20220924093841 54 173 7.0 0.0 0.00 0.12 0.01 98 1005.8
20220924093437 54 149 7.0 0.0 0.00 0.12 0.01 98 1005.8
20220924092936 54 125 6.0 0.0 0.00 0.12 0.01 97 1005.8
20220924092444 54 137 5.0 0.0 0.00 0.12 0.01 97 1005.8
20220924092017 54 143 6.0 0.0 0.00 0.12 0.01 97 1005.8
20220924091516 54 196 5.0 0.0 0.00 0.12 0.01 97 1005.8
20220924090917 54 150 6.0 0.0 0.00 0.12 0.01 97 1005.8
20220924090022 54 167 6.0 0.0 0.00 0.12 0.01 97 1005.8
20220924085351 54 149 6.0 0.0 0.00 0.12 0.01 97 1005.8
20220924084848 54 177 6.0 0.0 0.00 0.12 0.01 97 1005.8
20220924084402 54 170 6.0 0.0 0.00 0.12 0.01 97 1005.8
20220924083932 54 146 7.0 0.0 0.00 0.12 0.01 97 1005.8
20220924083351 54 135 6.0 0.0 0.00 0.12 0.01 97 1005.8
20220924082844 54 150 7.0 0.0 0.00 0.12 0.01 97 1005.8
20220924082428 54 145 9.0 0.0 0.00 0.12 0.01 97 1005.8
20220924081858 54 180 7.0 0.0 0.00 0.12 0.01 97 1005.8
20220924081345 54 139 6.0 0.0 0.00 0.12 0.01 97 1006.1
20220924080843 54 170 8.0 0.0 0.00 0.12 0.01 97 1006.1
20220924080338 54 182 5.0 0.0 0.00 0.12 0.01 97 1006.1
20220924075839 54 147 7.0 0.0 0.00 0.12 0.01 97 1006.1
20220924075352 54 139 6.0 0.0 0.00 0.12 0.01 97 1006.1
20220924074837 54 208 5.0 0.0 0.00 0.12 0.01 97 1006.1
20220924074343 54 126 7.0 0.0 0.00 0.12 0.01 97 1006.1
20220924073843 54 148 7.0 0.0 0.00 0.12 0.01 98 1006.4
20220924073338 54 144 8.0 0.0 0.00 0.12 0.01 97 1006.4
20220924072843 54 124 7.0 0.0 0.00 0.12 0.01 97 1006.4
20220924072341 54 144 6.0 0.0 0.00 0.12 0.01 97 1006.4
20220924071837 54 154 9.0 0.0 0.00 0.12 0.01 97 1006.4
20220924071338 54 140 9.0 0.0 0.00 0.12 0.01 97 1006.4
20220924070836 54 154 8.0 0.0 0.00 0.12 0.01 97 1006.4
20220924070339 54 190 8.0 0.0 0.00 0.12 0.01 97 1006.4
20220924065843 54 136 9.0 0.0 0.01 0.12 0.01 98 1006.4
20220924065340 54 153 10.0 0.0 0.01 0.12 0.01 98 1006.4
20220924064838 54 161 8.0 0.0 0.01 0.12 0.01 98 1006.4
20220924064343 54 168 7.0 0.0 0.01 0.12 0.01 98 1006.4
20220924063838 54 168 8.0 0.0 0.01 0.12 0.01 98 1006.4
20220924063344 54 158 8.0 0.0 0.01 0.12 0.01 98 1006.4
20220924062840 54 128 9.0 0.0 0.01 0.12 0.01 98 1006.4
20220924062342 54 145 11.0 0.0 0.01 0.12 0.01 98 1006.4
20220924061836 54 203 8.0 0.0 0.01 0.12 0.01 97 1006.4
20220924061341 54 152 9.0 0.0 0.01 0.12 0.01 98 1006.4
20220924060840 54 166 10.0 0.0 0.01 0.12 0.01 98 1006.4
20220924060345 54 140 12.0 0.0 0.01 0.12 0.01 98 1006.8
20220924055838 54 133 11.0 0.0 0.00 0.11 0.00 98 1006.8
20220924055345 54 146 7.0 0.0 0.00 0.11 0.00 98 1006.8
20220924054840 54 121 7.0 0.0 0.00 0.11 0.00 98 1007.1
20220924054345 54 168 9.0 0.0 0.00 0.11 0.00 98 1007.1
20220924053837 54 141 8.0 0.0 0.00 0.11 0.00 98 1007.1
20220924053339 54 151 12.0 0.0 0.00 0.11 0.00 98 1007.1
20220924052837 54 138 10.0 0.0 0.00 0.11 0.00 98 1007.1
20220924052340 54 138 8.0 0.0 0.00 0.11 0.00 98 1007.1
20220924051837 54 162 9.0 0.0 0.00 0.11 0.00 98 1007.1
20220924051341 54 139 10.0 0.0 0.00 0.11 0.00 99 1007.1